Tracking 30105 objects as of 25-Jan-2025
HD Live streaming from Space Station
objects crossing your sky now

STARLINK-4160

Track STARLINK-4160 now!
10-day predictions
STARLINK-4160 is classified as:


NORAD ID: 53030
Int'l Code: 2022-076AW
Perigee: 546.0 km
Apogee: 547.8 km
Inclination: 53.2 °
Period: 95.4 minutes
Semi major axis: 6917 km
RCS: Unknown
Launch date: July 7, 2022
Source: United States (US)
Launch site: AIR FORCE EASTERN TEST RANGE (AFETR)
Your satellite tracking list
Your tracking list is empty




NASA's NSSDC Master Catalog

Two Line Element Set (TLE):
1 53030U 22076AW  25024.57326060 -.00000586  00000-0 -18716-4 0  9998
2 53030  53.2173 120.9062 0001302  76.1235 283.9902 15.08837363141692
Source of the keplerian elements: AFSPC